• In Russia
  • List of Countries
  • For 7 days
  • Water Temperature
  • Satellite Maps
  • Weather Map
  • Weather Widgets
  • user-avatar
    Login

    Hourly Weather Shaki

    Today, 29 April, Saturday

    Time Temperature Precipitation Wind Pressure Humidity
    00:00 +11°C° 0 mm 1 mps 739 mmHg 73%
    01:00 +11°C° 0 mm 1 mps 739 mmHg 75%
    02:00 +10°C° 0 mm 1 mps 739 mmHg 77%
    03:00 +10°C° 0 mm 1 mps 738 mmHg 78%
    04:00 +11°C° 0 mm 1 mps 738 mmHg 75%
    05:00 +12°C° 0 mm 1 mps 738 mmHg 72%
    06:00 +13°C° 0 mm 1 mps 738 mmHg 68%
    07:00 +15°C° 0 mm 1 mps 738 mmHg 61%
    08:00 +19°C° 0 mm 1 mps 738 mmHg 53%
    09:00 +20°C° 0 mm 2 mps 738 mmHg 46%
    10:00 +21°C° 0 mm 2 mps 738 mmHg 43%
    11:00 +23°C° 0 mm 1 mps 738 mmHg 41%
    12:00 +24°C° 0 mm 1 mps 737 mmHg 38%
    13:00 +25°C° 0.1 mm 2 mps 737 mmHg 38%
    14:00 +25°C° 0.1 mm 2 mps 737 mmHg 37%
    15:00 +25°C° 0.1 mm 3 mps 737 mmHg 37%
    16:00 +24°C° 0 mm 2 mps 737 mmHg 42%
    17:00 +21°C° 0 mm 2 mps 737 mmHg 48%
    18:00 +20°C° 0 mm 2 mps 737 mmHg 53%
    19:00 +18°C° 0 mm 2 mps 737 mmHg 57%
    20:00 +16°C° 0 mm 2 mps 737 mmHg 61%
    21:00 +14°C° 0 mm 2 mps 737 mmHg 66%
    22:00 +14°C° 0 mm 2 mps 737 mmHg 66%
    23:00 +13°C° 0 mm 1 mps 737 mmHg 67%

    Tomorrow, 30 April, Sunday

    Time Temperature Precipitation Wind Pressure Humidity
    00:00 +13°C° 0 mm 1 mps 737 mmHg 68%
    01:00 +12°C° 0 mm 1 mps 737 mmHg 68%
    02:00 +12°C° 0 mm 1 mps 736 mmHg 68%
    03:00 +12°C° 0 mm 1 mps 736 mmHg 68%
    04:00 +13°C° 0 mm 1 mps 736 mmHg 64%
    05:00 +14°C° 0 mm 1 mps 736 mmHg 59%
    06:00 +15°C° 0 mm 1 mps 736 mmHg 54%
    07:00 +17°C° 0 mm 2 mps 736 mmHg 47%
    08:00 +20°C° 0 mm 2 mps 736 mmHg 41%
    09:00 +23°C° 0 mm 2 mps 736 mmHg 34%
    10:00 +24°C° 0 mm 2 mps 736 mmHg 32%
    11:00 +25°C° 0 mm 1 mps 736 mmHg 31%
    12:00 +27°C° 0 mm 1 mps 736 mmHg 30%
    13:00 +27°C° 0.1 mm 1 mps 735 mmHg 29%
    14:00 +27°C° 0.1 mm 1 mps 735 mmHg 29%
    15:00 +27°C° 0.1 mm 1 mps 734 mmHg 29%
    16:00 +26°C° 0 mm 1 mps 734 mmHg 34%
    17:00 +24°C° 0 mm 1 mps 734 mmHg 39%
    18:00 +23°C° 0 mm 1 mps 734 mmHg 44%
    19:00 +21°C° 0 mm 1 mps 734 mmHg 42%
    20:00 +19°C° 0 mm 1 mps 735 mmHg 41%
    21:00 +16°C° 0 mm 2 mps 735 mmHg 40%
    22:00 +16°C° 0 mm 2 mps 735 mmHg 39%
    23:00 +15°C° 0 mm 1 mps 735 mmHg 38%

    Day after tomorrow, 1 May, Monday

    Time Temperature Precipitation Wind Pressure Humidity
    00:00 +15°C° 0 mm 1 mps 735 mmHg 37%
    01:00 +14°C° 0 mm 1 mps 735 mmHg 39%
    02:00 +14°C° 0 mm 1 mps 735 mmHg 42%
    03:00 +14°C° 0 mm 1 mps 734 mmHg 44%
    04:00 +15°C° 0 mm 1 mps 735 mmHg 44%
    05:00 +16°C° 0 mm 2 mps 735 mmHg 44%
    06:00 +16°C° 0 mm 2 mps 735 mmHg 44%
    07:00 +19°C° 0 mm 2 mps 735 mmHg 38%
    08:00 +23°C° 0 mm 2 mps 735 mmHg 32%
    09:00 +26°C° 0 mm 2 mps 735 mmHg 26%
    10:00 +27°C° 0 mm 2 mps 735 mmHg 25%
    11:00 +28°C° 0 mm 2 mps 735 mmHg 24%
    12:00 +29°C° 0 mm 1 mps 735 mmHg 23%
    13:00 +29°C° 0 mm 1 mps 734 mmHg 23%
    14:00 +29°C° 0 mm 1 mps 734 mmHg 22%
    15:00 +29°C° 0 mm 1 mps 734 mmHg 22%
    16:00 +28°C° 0 mm 1 mps 734 mmHg 27%
    17:00 +26°C° 0 mm 1 mps 734 mmHg 32%
    18:00 +24°C° 0 mm 1 mps 734 mmHg 38%
    19:00 +22°C° 0 mm 1 mps 735 mmHg 37%
    20:00 +19°C° 0 mm 2 mps 735 mmHg 37%
    21:00 +17°C° 0 mm 2 mps 735 mmHg 37%
    22:00 +17°C° 0 mm 2 mps 735 mmHg 38%
    23:00 +16°C° 0 mm 1 mps 735 mmHg 40%

    2 May, Tuesday

    Time Temperature Precipitation Wind Pressure Humidity
    00:00 +15°C° 0 mm 1 mps 735 mmHg 41%
    01:00 +15°C° 0 mm 1 mps 735 mmHg 42%
    02:00 +15°C° 0 mm 1 mps 734 mmHg 44%
    03:00 +15°C° 0 mm 1 mps 734 mmHg 46%
    04:00 +16°C° 0 mm 1 mps 734 mmHg 47%
    05:00 +18°C° 0 mm 1 mps 734 mmHg 47%
    06:00 +19°C° 0 mm 1 mps 734 mmHg 48%
    07:00 +21°C° 0 mm 1 mps 734 mmHg 41%
    08:00 +24°C° 0 mm 1 mps 734 mmHg 34%
    09:00 +26°C° 0 mm 1 mps 734 mmHg 27%
    10:00 +27°C° 0 mm 1 mps 734 mmHg 26%
    11:00 +28°C° 0 mm 2 mps 734 mmHg 25%
    12:00 +28°C° 0 mm 2 mps 733 mmHg 24%
    13:00 +29°C° 0 mm 2 mps 733 mmHg 24%
    14:00 +29°C° 0 mm 2 mps 732 mmHg 25%
    15:00 +29°C° 0 mm 3 mps 732 mmHg 25%
    16:00 +28°C° 0 mm 2 mps 732 mmHg 32%
    17:00 +26°C° 0 mm 2 mps 732 mmHg 39%
    18:00 +25°C° 0 mm 1 mps 732 mmHg 46%
    19:00 +23°C° 0 mm 1 mps 732 mmHg 48%
    20:00 +20°C° 0 mm 2 mps 732 mmHg 49%
    21:00 +18°C° 0 mm 2 mps 733 mmHg 51%
    22:00 +19°C° 0 mm 1 mps 733 mmHg 52%
    23:00 +18°C° 0 mm 1 mps 732 mmHg 52%

    3 May, Wednesday

    Time Temperature Precipitation Wind Pressure Humidity
    00:00 +18°C° 0 mm 1 mps 732 mmHg 53%
    01:00 +16°C° 0 mm 1 mps 732 mmHg 52%
    02:00 +16°C° 0 mm 2 mps 732 mmHg 52%
    03:00 +16°C° 0 mm 2 mps 732 mmHg 52%
    04:00 +17°C° 0 mm 2 mps 732 mmHg 51%
    05:00 +17°C° 0 mm 2 mps 732 mmHg 51%
    06:00 +18°C° 0 mm 2 mps 732 mmHg 50%
    07:00 +21°C° 0 mm 2 mps 732 mmHg 44%
    08:00 +24°C° 0 mm 3 mps 732 mmHg 39%
    09:00 +26°C° 0 mm 3 mps 732 mmHg 33%
    10:00 +27°C° 0.1 mm 3 mps 731 mmHg 32%
    11:00 +28°C° 0.1 mm 3 mps 731 mmHg 30%
    12:00 +29°C° 0.1 mm 3 mps 731 mmHg 29%
    13:00 +29°C° 0.1 mm 2 mps 731 mmHg 28%
    14:00 +29°C° 0.1 mm 2 mps 730 mmHg 27%
    15:00 +30°C° 0.1 mm 2 mps 730 mmHg 26%
    16:00 +28°C° 0 mm 2 mps 730 mmHg 31%
    17:00 +26°C° 0 mm 1 mps 730 mmHg 35%
    18:00 +25°C° 0 mm 1 mps 730 mmHg 39%
    19:00 +23°C° 0 mm 1 mps 731 mmHg 38%
    20:00 +21°C° 0 mm 1 mps 731 mmHg 37%
    21:00 +18°C° 0 mm 2 mps 731 mmHg 35%
    22:00 +19°C° 0.1 mm 1 mps 731 mmHg 36%
    23:00 +18°C° 0.1 mm 1 mps 731 mmHg 37%

    4 May, Thursday

    Time Temperature Precipitation Wind Pressure Humidity
    00:00 +18°C° 0.1 mm 1 mps 731 mmHg 39%
    01:00 +16°C° 0 mm 2 mps 731 mmHg 43%
    02:00 +16°C° 0 mm 2 mps 731 mmHg 47%
    03:00 +16°C° 0 mm 2 mps 731 mmHg 51%
    04:00 +17°C° 0 mm 2 mps 731 mmHg 51%
    05:00 +17°C° 0 mm 2 mps 732 mmHg 51%
    06:00 +18°C° 0 mm 2 mps 732 mmHg 51%
    07:00 +20°C° 0 mm 2 mps 732 mmHg 45%
    08:00 +24°C° 0 mm 2 mps 732 mmHg 40%
    09:00 +26°C° 0 mm 3 mps 732 mmHg 34%
    10:00 +27°C° 0 mm 3 mps 732 mmHg 33%
    11:00 +27°C° 0 mm 3 mps 731 mmHg 33%
    12:00 +28°C° 0 mm 3 mps 731 mmHg 32%
    13:00 +28°C° 0.1 mm 3 mps 731 mmHg 32%
    14:00 +29°C° 0.1 mm 2 mps 731 mmHg 31%
    15:00 +29°C° 0.1 mm 2 mps 730 mmHg 31%
    16:00 +27°C° 0.2 mm 2 mps 731 mmHg 37%
    17:00 +26°C° 0.2 mm 2 mps 731 mmHg 42%
    18:00 +24°C° 0.2 mm 1 mps 731 mmHg 47%
    19:00 +22°C° 0.4 mm 1 mps 731 mmHg 52%
    20:00 +20°C° 0.4 mm 1 mps 731 mmHg 56%
    21:00 +18°C° 0.4 mm 1 mps 731 mmHg 61%
    22:00 +16°C° 0.1 mm 1 mps 732 mmHg 62%
    23:00 +16°C° 0.1 mm 1 mps 732 mmHg 63%
    Show more